| time (UTC) | temp C | wind direction | speed KPH | gust KPH | rain 1hr cm | rain 24hr cm | rain mn cm | humidity % | barometer mb |
| 20260505181527 | 6 | 360 | 20.9 | 0.0 | 0.00 | 0.00 | 0.00 | 36 | 1018.2 |
| 20260505181027 | 6 | 360 | 20.9 | 0.0 | 0.00 | 0.00 | 0.00 | 36 | 1018.1 |
| 20260505180527 | 6 | 360 | 22.5 | 0.0 | 0.00 | 0.00 | 0.00 | 36 | 1018.1 |
| 20260505180128 | 6 | 360 | 22.5 | 0.0 | 0.00 | 0.00 | 0.00 | 35 | 1018.2 |
| 20260505175526 | 6 | 360 | 22.5 | 0.0 | 0.00 | 0.00 | 0.00 | 36 | 1018.2 |
| 20260505175026 | 6 | 360 | 22.5 | 0.0 | 0.00 | 0.00 | 0.00 | 36 | 1018.2 |
| 20260505174526 | 6 | 360 | 20.9 | 0.0 | 0.00 | 0.00 | 0.00 | 36 | 1018.2 |
| 20260505174027 | 6 | 360 | 22.5 | 0.0 | 0.00 | 0.00 | 0.00 | 35 | 1018.1 |
| 20260505173526 | 6 | 360 | 24.1 | 0.0 | 0.00 | 0.00 | 0.00 | 36 | 1018.3 |
| 20260505173026 | 6 | 360 | 22.5 | 0.0 | 0.00 | 0.00 | 0.00 | 36 | 1018.2 |
| 20260505172525 | 6 | 360 | 20.9 | 0.0 | 0.00 | 0.00 | 0.00 | 35 | 1018.3 |
| 20260505172025 | 6 | 360 | 24.1 | 0.0 | 0.00 | 0.00 | 0.00 | 37 | 1018.3 |
| 20260505171524 | 6 | 360 | 24.1 | 0.0 | 0.00 | 0.00 | 0.00 | 35 | 1018.4 |
| 20260505171026 | 6 | 360 | 22.5 | 0.0 | 0.00 | 0.00 | 0.00 | 36 | 1018.4 |
| 20260505170523 | 6 | 360 | 24.1 | 0.0 | 0.00 | 0.00 | 0.00 | 36 | 1018.4 |
| 20260505170126 | 6 | 360 | 22.5 | 0.0 | 0.00 | 0.00 | 0.00 | 37 | 1018.4 |
| 20260505165526 | 5 | 360 | 24.1 | 0.0 | 0.00 | 0.00 | 0.00 | 37 | 1018.5 |
| 20260505165027 | 5 | 360 | 22.5 | 0.0 | 0.00 | 0.00 | 0.00 | 38 | 1018.3 |
| 20260505164524 | 5 | 360 | 24.1 | 0.0 | 0.00 | 0.00 | 0.00 | 35 | 1018.5 |
| 20260505164024 | 6 | 360 | 27.4 | 0.0 | 0.00 | 0.00 | 0.00 | 37 | 1018.4 |
| 20260505163522 | 6 | 360 | 27.4 | 0.0 | 0.00 | 0.00 | 0.00 | 37 | 1018.3 |
| 20260505163021 | 5 | 360 | 25.7 | 0.0 | 0.00 | 0.00 | 0.00 | 39 | 1018.3 |
| 20260505162528 | 4 | 360 | 27.4 | 0.0 | 0.00 | 0.00 | 0.00 | 40 | 1018.4 |
| 20260505162021 | 5 | 360 | 25.7 | 0.0 | 0.00 | 0.00 | 0.00 | 39 | 1018.5 |
| 20260505161535 | 5 | 360 | 24.1 | 0.0 | 0.00 | 0.00 | 0.00 | 41 | 1018.3 |
| 20260505161020 | 5 | 360 | 25.7 | 0.0 | 0.00 | 0.00 | 0.00 | 39 | 1018.3 |
| 20260505160521 | 5 | 360 | 25.7 | 0.0 | 0.00 | 0.00 | 0.00 | 40 | 1018.4 |
| 20260505160118 | 4 | 360 | 24.1 | 0.0 | 0.00 | 0.00 | 0.00 | 40 | 1018.4 |
| 20260505153016 | 3 | 360 | 24.1 | 0.0 | 0.00 | 0.00 | 0.00 | 43 | 1018.4 |
| 20260505152515 | 3 | 360 | 25.7 | 0.0 | 0.00 | 0.00 | 0.00 | 43 | 1018.4 |
| 20260505152014 | 3 | 360 | 27.4 | 0.0 | 0.00 | 0.00 | 0.00 | 42 | 1018.4 |
| 20260505151513 | 3 | 360 | 27.4 | 0.0 | 0.00 | 0.00 | 0.00 | 41 | 1018.4 |
| 20260505151013 | 3 | 360 | 25.7 | 0.0 | 0.00 | 0.00 | 0.00 | 42 | 1018.3 |
| 20260505150513 | 3 | 360 | 27.4 | 0.0 | 0.00 | 0.00 | 0.00 | 42 | 1018.3 |
| 20260505150111 | 3 | 360 | 25.7 | 0.0 | 0.00 | 0.00 | 0.00 | 42 | 1018.2 |
| 20260505140505 | 3 | 360 | 25.7 | 0.0 | 0.00 | 0.00 | 0.00 | 48 | 1017.8 |
| 20260505140106 | 3 | 360 | 24.1 | 0.0 | 0.00 | 0.00 | 0.00 | 51 | 1017.9 |
| 20260505130112 | 2 | 360 | 16.1 | 0.0 | 0.00 | 0.00 | 0.00 | 58 | 1017.3 |
| 20260505124558 | 2 | 360 | 16.1 | 0.0 | 0.00 | 0.00 | 0.00 | 59 | 1017.2 |
| 20260505124057 | 1 | 360 | 14.5 | 0.0 | 0.00 | 0.00 | 0.00 | 60 | 1017.2 |
| 20260505123556 | 1 | 360 | 12.9 | 0.0 | 0.00 | 0.00 | 0.00 | 61 | 1017.1 |
| 20260505123102 | 1 | 360 | 14.5 | 0.0 | 0.00 | 0.00 | 0.00 | 61 | 1017.1 |
| 20260505122555 | 1 | 360 | 12.9 | 0.0 | 0.00 | 0.00 | 0.00 | 61 | 1016.9 |
| 20260505122055 | 1 | 360 | 12.9 | 0.0 | 0.00 | 0.00 | 0.00 | 61 | 1016.9 |
| 20260505121556 | 1 | 360 | 14.5 | 0.0 | 0.00 | 0.00 | 0.00 | 61 | 1016.9 |
| 20260505121053 | 1 | 360 | 14.5 | 0.0 | 0.00 | 0.00 | 0.00 | 61 | 1016.8 |
| 20260505120553 | 1 | 360 | 12.9 | 0.0 | 0.00 | 0.00 | 0.00 | 63 | 1016.7 |
| 20260505120059 | 1 | 360 | 11.3 | 0.0 | 0.00 | 0.00 | 0.00 | 63 | 1016.7 |
| 20260505115552 | 1 | 360 | 11.3 | 0.0 | 0.00 | 0.00 | 0.00 | 63 | 1016.7 |
| 20260505115052 | 1 | 360 | 11.3 | 0.0 | 0.00 | 0.00 | 0.00 | 62 | 1016.7 |
| 20260505114552 | 1 | 360 | 11.3 | 0.0 | 0.00 | 0.00 | 0.00 | 62 | 1016.7 |
| 20260505114052 | 1 | 360 | 12.9 | 0.0 | 0.00 | 0.00 | 0.00 | 61 | 1016.6 |
| 20260505113552 | 1 | 360 | 12.9 | 0.0 | 0.00 | 0.00 | 0.00 | 61 | 1016.6 |
| 20260505113058 | 1 | 360 | 14.5 | 0.0 | 0.00 | 0.00 | 0.00 | 61 | 1016.6 |
| 20260505112550 | 1 | 360 | 12.9 | 0.0 | 0.00 | 0.00 | 0.00 | 61 | 1016.6 |
| 20260505112049 | 1 | 360 | 12.9 | 0.0 | 0.00 | 0.00 | 0.00 | 62 | 1016.5 |
| 20260505111549 | 1 | 360 | 12.9 | 0.0 | 0.00 | 0.00 | 0.00 | 63 | 1016.6 |
| 20260505111049 | 1 | 360 | 11.3 | 0.0 | 0.00 | 0.00 | 0.00 | 62 | 1016.6 |
| 20260505110548 | 1 | 360 | 11.3 | 0.0 | 0.00 | 0.00 | 0.00 | 63 | 1016.5 |
| 20260505102041 | 2 | 360 | 14.5 | 0.0 | 0.00 | 0.00 | 0.00 | 63 | 1016.3 |
| 20260505101548 | 2 | 360 | 12.9 | 0.0 | 0.00 | 0.00 | 0.00 | 63 | 1016.3 |
| 20260505101041 | 2 | 360 | 12.9 | 0.0 | 0.00 | 0.00 | 0.00 | 62 | 1016.3 |
| 20260505100544 | 2 | 360 | 12.9 | 0.0 | 0.00 | 0.00 | 0.00 | 62 | 1016.3 |
| 20260505100040 | 2 | 360 | 12.9 | 0.0 | 0.00 | 0.00 | 0.00 | 61 | 1016.2 |
| 20260505095545 | 2 | 360 | 12.9 | 0.0 | 0.00 | 0.00 | 0.00 | 61 | 1016.1 |
| 20260505095039 | 2 | 360 | 14.5 | 0.0 | 0.00 | 0.00 | 0.00 | 61 | 1016.2 |
| 20260505094539 | 2 | 360 | 14.5 | 0.0 | 0.00 | 0.00 | 0.00 | 60 | 1016.0 |
| 20260505094038 | 2 | 360 | 14.5 | 0.0 | 0.00 | 0.00 | 0.00 | 60 | 1016.0 |
| 20260505093542 | 2 | 360 | 12.9 | 0.0 | 0.00 | 0.00 | 0.00 | 60 | 1016.0 |
| 20260505093039 | 2 | 360 | 11.3 | 0.0 | 0.00 | 0.00 | 0.00 | 60 | 1015.9 |
| 20260505092539 | 2 | 360 | 12.9 | 0.0 | 0.00 | 0.00 | 0.00 | 60 | 1015.9 |
| 20260505092037 | 2 | 360 | 12.9 | 0.0 | 0.00 | 0.00 | 0.00 | 59 | 1015.9 |
| 20260505091537 | 2 | 360 | 11.3 | 0.0 | 0.00 | 0.00 | 0.00 | 59 | 1015.9 |
| 20260505091036 | 2 | 360 | 11.3 | 0.0 | 0.00 | 0.00 | 0.00 | 59 | 1015.8 |
| 20260505090536 | 2 | 360 | 11.3 | 0.0 | 0.00 | 0.00 | 0.00 | 59 | 1015.8 |
| 20260505090042 | 2 | 360 | 12.9 | 0.0 | 0.00 | 0.00 | 0.00 | 59 | 1015.9 |
| 20260505085535 | 2 | 360 | 12.9 | 0.0 | 0.00 | 0.00 | 0.00 | 59 | 1015.8 |
| 20260505085035 | 2 | 360 | 12.9 | 0.0 | 0.00 | 0.00 | 0.00 | 59 | 1015.8 |
| 20260505084546 | 2 | 360 | 11.3 | 0.0 | 0.00 | 0.00 | 0.00 | 59 | 1015.8 |
| 20260505084033 | 2 | 360 | 11.3 | 0.0 | 0.00 | 0.00 | 0.00 | 59 | 1015.8 |
| 20260505083533 | 2 | 360 | 12.9 | 0.0 | 0.00 | 0.00 | 0.00 | 59 | 1015.7 |
| 20260505083039 | 2 | 360 | 11.3 | 0.0 | 0.00 | 0.00 | 0.00 | 59 | 1015.7 |
| 20260505082533 | 2 | 360 | 9.7 | 0.0 | 0.00 | 0.00 | 0.00 | 59 | 1015.7 |
| 20260505082032 | 2 | 360 | 9.7 | 0.0 | 0.00 | 0.00 | 0.00 | 58 | 1015.7 |
| 20260505081533 | 2 | 360 | 9.7 | 0.0 | 0.00 | 0.00 | 0.00 | 58 | 1015.7 |
| 20260505081034 | 2 | 360 | 9.7 | 0.0 | 0.00 | 0.00 | 0.00 | 58 | 1015.6 |
| 20260505080531 | 2 | 360 | 8.0 | 0.0 | 0.00 | 0.00 | 0.00 | 58 | 1015.6 |
| 20260505080042 | 2 | 360 | 9.7 | 0.0 | 0.00 | 0.00 | 0.00 | 58 | 1015.8 |
| 20260505075533 | 2 | 360 | 9.7 | 0.0 | 0.00 | 0.00 | 0.00 | 58 | 1015.8 |
| 20260505075031 | 2 | 360 | 9.7 | 0.0 | 0.00 | 0.00 | 0.00 | 58 | 1015.7 |
| 20260505074531 | 2 | 360 | 9.7 | 0.0 | 0.00 | 0.00 | 0.00 | 58 | 1015.7 |
| 20260505074031 | 2 | 360 | 11.3 | 0.0 | 0.00 | 0.00 | 0.00 | 58 | 1015.6 |
| 20260505073531 | 2 | 360 | 11.3 | 0.0 | 0.00 | 0.00 | 0.00 | 58 | 1015.6 |
| 20260505073034 | 2 | 360 | 11.3 | 0.0 | 0.00 | 0.00 | 0.00 | 58 | 1015.6 |
| 20260505072531 | 2 | 360 | 9.7 | 0.0 | 0.00 | 0.00 | 0.00 | 57 | 1015.6 |
| 20260505072029 | 2 | 360 | 9.7 | 0.0 | 0.00 | 0.00 | 0.00 | 57 | 1015.5 |
| 20260505071542 | 2 | 360 | 11.3 | 0.0 | 0.00 | 0.00 | 0.00 | 57 | 1015.6 |
| 20260505071030 | 2 | 360 | 11.3 | 0.0 | 0.00 | 0.00 | 0.00 | 56 | 1015.6 |
| 20260505070528 | 2 | 360 | 12.9 | 0.0 | 0.00 | 0.00 | 0.00 | 56 | 1015.5 |
| 20260505070027 | 2 | 360 | 12.9 | 0.0 | 0.00 | 0.00 | 0.00 | 56 | 1015.5 |
| 20260505065528 | 2 | 360 | 12.9 | 0.0 | 0.00 | 0.00 | 0.00 | 56 | 1015.5 |
| 20260505065027 | 2 | 360 | 12.9 | 0.0 | 0.00 | 0.00 | 0.00 | 56 | 1015.5 |
| 20260505064533 | 2 | 360 | 14.5 | 0.0 | 0.00 | 0.00 | 0.00 | 56 | 1015.5 |
| 20260505064029 | 2 | 360 | 12.9 | 0.0 | 0.00 | 0.00 | 0.00 | 56 | 1015.4 |
| 20260505063526 | 2 | 360 | 12.9 | 0.0 | 0.00 | 0.00 | 0.00 | 56 | 1015.5 |
| 20260505063026 | 2 | 360 | 11.3 | 0.0 | 0.00 | 0.00 | 0.00 | 56 | 1015.4 |
| 20260505062525 | 2 | 360 | 11.3 | 0.0 | 0.00 | 0.00 | 0.00 | 56 | 1015.5 |
| 20260505062024 | 2 | 360 | 11.3 | 0.0 | 0.00 | 0.00 | 0.00 | 55 | 1015.4 |
| 20260505061527 | 2 | 360 | 11.3 | 0.0 | 0.00 | 0.00 | 0.00 | 55 | 1015.4 |
| 20260505061022 | 2 | 360 | 14.5 | 0.0 | 0.00 | 0.00 | 0.00 | 54 | 1015.4 |
| 20260505060522 | 2 | 360 | 14.5 | 0.0 | 0.00 | 0.00 | 0.00 | 54 | 1015.3 |
| 20260505060032 | 2 | 360 | 14.5 | 0.0 | 0.00 | 0.00 | 0.00 | 53 | 1015.3 |
| 20260505055522 | 2 | 360 | 14.5 | 0.0 | 0.00 | 0.00 | 0.00 | 53 | 1015.3 |
| 20260505055022 | 2 | 360 | 16.1 | 0.0 | 0.00 | 0.00 | 0.00 | 53 | 1015.2 |
| 20260505054522 | 2 | 360 | 14.5 | 0.0 | 0.00 | 0.00 | 0.00 | 53 | 1015.2 |
| 20260505054021 | 2 | 360 | 12.9 | 0.0 | 0.00 | 0.00 | 0.00 | 53 | 1015.2 |
| 20260505053520 | 3 | 360 | 14.5 | 0.0 | 0.00 | 0.00 | 0.00 | 53 | 1015.1 |
| 20260505053025 | 3 | 360 | 12.9 | 0.0 | 0.00 | 0.00 | 0.00 | 53 | 1015.1 |
| 20260505052520 | 3 | 360 | 14.5 | 0.0 | 0.00 | 0.00 | 0.00 | 53 | 1015.1 |
| 20260505052020 | 3 | 360 | 14.5 | 0.0 | 0.00 | 0.00 | 0.00 | 53 | 1015.0 |
| 20260505051520 | 3 | 360 | 12.9 | 0.0 | 0.00 | 0.00 | 0.00 | 53 | 1014.9 |
| 20260505051018 | 3 | 360 | 12.9 | 0.0 | 0.00 | 0.00 | 0.00 | 53 | 1014.9 |
| 20260505050518 | 3 | 360 | 12.9 | 0.0 | 0.00 | 0.00 | 0.00 | 53 | 1014.8 |
| 20260505041515 | 3 | 360 | 9.7 | 0.0 | 0.00 | 0.00 | 0.00 | 54 | 1014.6 |
| 20260505041015 | 3 | 360 | 9.7 | 0.0 | 0.00 | 0.00 | 0.00 | 54 | 1014.6 |
| 20260505040516 | 3 | 360 | 9.7 | 0.0 | 0.00 | 0.00 | 0.00 | 54 | 1014.6 |
| 20260505040016 | 3 | 360 | 8.0 | 0.0 | 0.00 | 0.00 | 0.00 | 55 | 1014.5 |
| 20260505035514 | 3 | 360 | 8.0 | 0.0 | 0.00 | 0.00 | 0.00 | 55 | 1014.5 |
| 20260505035017 | 3 | 360 | 8.0 | 0.0 | 0.00 | 0.00 | 0.00 | 55 | 1014.5 |
| 20260505034513 | 3 | 360 | 9.7 | 0.0 | 0.00 | 0.00 | 0.00 | 54 | 1014.5 |
| 20260505034014 | 3 | 360 | 9.7 | 0.0 | 0.00 | 0.00 | 0.00 | 54 | 1014.5 |
| 20260505033516 | 3 | 360 | 11.3 | 0.0 | 0.00 | 0.00 | 0.00 | 54 | 1014.5 |
| 20260505033012 | 3 | 360 | 11.3 | 0.0 | 0.00 | 0.00 | 0.00 | 54 | 1014.4 |
| 20260505032512 | 3 | 360 | 12.9 | 0.0 | 0.00 | 0.00 | 0.00 | 53 | 1014.4 |
| 20260505032010 | 3 | 360 | 14.5 | 0.0 | 0.00 | 0.00 | 0.00 | 53 | 1014.3 |
| 20260505031512 | 3 | 360 | 16.1 | 0.0 | 0.00 | 0.00 | 0.00 | 52 | 1014.3 |
| 20260505031012 | 3 | 360 | 17.7 | 0.0 | 0.00 | 0.00 | 0.00 | 52 | 1014.2 |
| 20260505030510 | 3 | 360 | 20.9 | 0.0 | 0.00 | 0.00 | 0.00 | 52 | 1014.1 |
| 20260505030009 | 3 | 360 | 20.9 | 0.0 | 0.00 | 0.00 | 0.00 | 51 | 1014.1 |
| 20260505025508 | 3 | 360 | 20.9 | 0.0 | 0.00 | 0.00 | 0.00 | 51 | 1014.0 |
| 20260505025006 | 3 | 360 | 19.3 | 0.0 | 0.00 | 0.00 | 0.00 | 52 | 1014.0 |
| 20260505024506 | 3 | 360 | 17.7 | 0.0 | 0.00 | 0.00 | 0.00 | 52 | 1013.9 |
| 20260505024010 | 3 | 360 | 17.7 | 0.0 | 0.00 | 0.00 | 0.00 | 51 | 1013.8 |
| 20260505023504 | 3 | 360 | 19.3 | 0.0 | 0.00 | 0.00 | 0.00 | 51 | 1013.7 |
| 20260505023004 | 3 | 360 | 22.5 | 0.0 | 0.00 | 0.00 | 0.00 | 50 | 1013.6 |
| 20260505022503 | 4 | 360 | 24.1 | 0.0 | 0.00 | 0.00 | 0.00 | 49 | 1013.5 |
| 20260505022006 | 4 | 360 | 22.5 | 0.0 | 0.00 | 0.00 | 0.00 | 49 | 1013.4 |
| 20260505021502 | 4 | 360 | 19.3 | 0.0 | 0.00 | 0.00 | 0.00 | 49 | 1013.2 |
| 20260505021001 | 4 | 360 | 19.3 | 0.0 | 0.00 | 0.00 | 0.00 | 49 | 1013.2 |
| 20260505020501 | 5 | 360 | 19.3 | 0.0 | 0.00 | 0.00 | 0.00 | 48 | 1013.1 |
| 20260505020105 | 5 | 360 | 20.9 | 0.0 | 0.00 | 0.00 | 0.00 | 48 | 1013.0 |
| 20260505015501 | 5 | 360 | 20.9 | 0.0 | 0.00 | 0.00 | 0.00 | 48 | 1012.9 |
| 20260505015001 | 5 | 360 | 20.9 | 0.0 | 0.00 | 0.00 | 0.00 | 47 | 1012.8 |
| 20260505014607 | 5 | 360 | 20.9 | 0.0 | 0.00 | 0.00 | 0.00 | 47 | 1012.8 |
| 20260505014103 | 5 | 360 | 22.5 | 0.0 | 0.00 | 0.00 | 0.00 | 47 | 1012.6 |
| 20260505013558 | 5 | 360 | 24.1 | 0.0 | 0.00 | 0.00 | 0.00 | 47 | 1012.5 |
| 20260505013058 | 5 | 360 | 22.5 | 0.0 | 0.00 | 0.00 | 0.00 | 46 | 1012.4 |
| 20260505012557 | 5 | 360 | 24.1 | 0.0 | 0.00 | 0.00 | 0.00 | 46 | 1012.4 |
| 20260505012056 | 5 | 360 | 25.7 | 0.0 | 0.00 | 0.00 | 0.00 | 45 | 1012.3 |
| 20260505011556 | 5 | 360 | 24.1 | 0.0 | 0.00 | 0.00 | 0.00 | 45 | 1012.2 |
| 20260505011054 | 5 | 360 | 24.1 | 0.0 | 0.00 | 0.00 | 0.00 | 46 | 1012.1 |
| 20260505010554 | 6 | 360 | 25.7 | 0.0 | 0.00 | 0.00 | 0.00 | 46 | 1012.0 |
| 20260505010055 | 6 | 360 | 27.4 | 0.0 | 0.00 | 0.00 | 0.00 | 45 | 1011.9 |
| 20260505005053 | 6 | 360 | 25.7 | 0.0 | 0.00 | 0.00 | 0.00 | 45 | 1011.8 |
| 20260505004556 | 6 | 360 | 27.4 | 0.0 | 0.00 | 0.00 | 0.00 | 45 | 1011.8 |
| 20260505004055 | 6 | 360 | 27.4 | 0.0 | 0.00 | 0.00 | 0.00 | 45 | 1011.8 |
| 20260505003551 | 6 | 360 | 27.4 | 0.0 | 0.00 | 0.00 | 0.00 | 45 | 1011.7 |
| 20260505003053 | 6 | 360 | 27.4 | 0.0 | 0.00 | 0.00 | 0.00 | 45 | 1011.7 |
| 20260505002556 | 6 | 360 | 25.7 | 0.0 | 0.00 | 0.00 | 0.00 | 45 | 1011.7 |
| 20260505002051 | 6 | 360 | 25.7 | 0.0 | 0.00 | 0.00 | 0.00 | 44 | 1011.7 |
| 20260505001550 | 6 | 360 | 29.0 | 0.0 | 0.00 | 0.00 | 0.00 | 44 | 1011.6 |
| 20260505001049 | 6 | 360 | 30.6 | 0.0 | 0.00 | 0.00 | 0.00 | 43 | 1011.5 |
| 20260505000549 | 7 | 360 | 30.6 | 0.0 | 0.00 | 0.00 | 0.00 | 43 | 1011.5 |
| 20260505000055 | 7 | 360 | 30.6 | 0.0 | 0.00 | 0.00 | 0.00 | 43 | 1011.5 |
| 20260504235051 | 7 | 360 | 30.6 | 0.0 | 0.00 | 0.00 | 0.00 | 42 | 1011.4 |
| 20260504234550 | 7 | 360 | 32.2 | 0.0 | 0.00 | 0.00 | 0.00 | 43 | 1011.4 |
| 20260504234049 | 7 | 360 | 32.2 | 0.0 | 0.00 | 0.00 | 0.00 | 43 | 1011.2 |
| 20260504233549 | 7 | 360 | 32.2 | 0.0 | 0.00 | 0.00 | 0.00 | 43 | 1011.1 |
| 20260504233049 | 7 | 360 | 30.6 | 0.0 | 0.00 | 0.00 | 0.00 | 42 | 1011.2 |
| 20260504232651 | 8 | 360 | 29.0 | 0.0 | 0.00 | 0.00 | 0.00 | 41 | 1011.1 |
| 20260504232049 | 8 | 360 | 29.0 | 0.0 | 0.00 | 0.00 | 0.00 | 41 | 1011.0 |
| 20260504231547 | 8 | 360 | 30.6 | 0.0 | 0.00 | 0.00 | 0.00 | 40 | 1011.0 |
| 20260504231046 | 8 | 360 | 29.0 | 0.0 | 0.00 | 0.00 | 0.00 | 40 | 1010.9 |
| 20260504230549 | 8 | 360 | 30.6 | 0.0 | 0.00 | 0.00 | 0.00 | 40 | 1010.7 |
| 20260504230050 | 8 | 360 | 29.0 | 0.0 | 0.00 | 0.00 | 0.00 | 41 | 1010.6 |
| 20260504225045 | 8 | 360 | 29.0 | 0.0 | 0.00 | 0.00 | 0.00 | 42 | 1010.6 |
| 20260504224548 | 8 | 360 | 32.2 | 0.0 | 0.00 | 0.00 | 0.00 | 41 | 1010.6 |
| 20260504224048 | 8 | 360 | 30.6 | 0.0 | 0.00 | 0.00 | 0.00 | 39 | 1010.5 |
| 20260504223547 | 9 | 360 | 27.4 | 0.0 | 0.00 | 0.00 | 0.00 | 40 | 1010.4 |
| 20260504223045 | 8 | 360 | 27.4 | 0.0 | 0.00 | 0.00 | 0.00 | 40 | 1010.5 |
| 20260504222547 | 8 | 360 | 29.0 | 0.0 | 0.00 | 0.00 | 0.00 | 41 | 1010.6 |
| 20260504222044 | 9 | 360 | 27.4 | 0.0 | 0.00 | 0.00 | 0.00 | 39 | 1010.4 |
| 20260504221545 | 9 | 360 | 25.7 | 0.0 | 0.00 | 0.00 | 0.00 | 41 | 1010.4 |
| 20260504221044 | 9 | 360 | 25.7 | 0.0 | 0.00 | 0.00 | 0.00 | 41 | 1010.4 |
| 20260504220544 | 9 | 360 | 27.4 | 0.0 | 0.00 | 0.00 | 0.00 | 42 | 1010.4 |
| 20260504220045 | 8 | 360 | 29.0 | 0.0 | 0.00 | 0.00 | 0.00 | 41 | 1010.4 |
| 20260504215045 | 8 | 360 | 30.6 | 0.0 | 0.00 | 0.00 | 0.00 | 42 | 1010.5 |
| 20260504214553 | 8 | 360 | 27.4 | 0.0 | 0.00 | 0.00 | 0.00 | 42 | 1010.3 |
| 20260504214044 | 8 | 360 | 24.1 | 0.0 | 0.00 | 0.00 | 0.00 | 41 | 1010.3 |
| 20260504213544 | 10 | 360 | 25.7 | 0.0 | 0.00 | 0.00 | 0.00 | 38 | 1010.4 |
| 20260504213043 | 9 | 360 | 24.1 | 0.0 | 0.00 | 0.00 | 0.00 | 42 | 1010.4 |
| 20260504212543 | 8 | 360 | 22.5 | 0.0 | 0.00 | 0.00 | 0.00 | 46 | 1010.4 |
| 20260504212045 | 8 | 360 | 24.1 | 0.0 | 0.00 | 0.00 | 0.00 | 49 | 1010.5 |
| 20260504211543 | 7 | 360 | 22.5 | 0.0 | 0.00 | 0.00 | 0.00 | 51 | 1010.6 |
| 20260504211043 | 7 | 360 | 22.5 | 0.0 | 0.00 | 0.00 | 0.00 | 50 | 1010.6 |
| 20260504210543 | 7 | 360 | 20.9 | 0.0 | 0.00 | 0.00 | 0.00 | 52 | 1010.6 |
| 20260504210055 | 7 | 360 | 20.9 | 0.0 | 0.00 | 0.00 | 0.00 | 53 | 1010.7 |
| 20260504205042 | 7 | 360 | 22.5 | 0.0 | 0.00 | 0.00 | 0.00 | 53 | 1010.8 |
| 20260504204557 | 7 | 360 | 24.1 | 0.0 | 0.00 | 0.00 | 0.00 | 51 | 1010.8 |
| 20260504204042 | 7 | 360 | 24.1 | 0.0 | 0.00 | 0.00 | 0.00 | 51 | 1010.7 |
| 20260504203542 | 7 | 360 | 24.1 | 0.0 | 0.00 | 0.00 | 0.00 | 51 | 1010.6 |
| 20260504203044 | 7 | 360 | 24.1 | 0.0 | 0.00 | 0.00 | 0.00 | 51 | 1010.6 |
| 20260504202542 | 7 | 360 | 24.1 | 0.0 | 0.00 | 0.00 | 0.00 | 51 | 1010.7 |
| 20260504202042 | 7 | 360 | 25.7 | 0.0 | 0.00 | 0.00 | 0.00 | 51 | 1010.6 |
| 20260504201541 | 7 | 360 | 25.7 | 0.0 | 0.00 | 0.00 | 0.00 | 50 | 1010.6 |
| 20260504201041 | 7 | 360 | 25.7 | 0.0 | 0.00 | 0.00 | 0.00 | 51 | 1010.6 |
| 20260504200541 | 7 | 360 | 25.7 | 0.0 | 0.00 | 0.00 | 0.00 | 50 | 1010.6 |
| 20260504200040 | 7 | 360 | 25.7 | 0.0 | 0.00 | 0.00 | 0.00 | 50 | 1010.6 |
| 20260504195041 | 7 | 360 | 24.1 | 0.0 | 0.00 | 0.00 | 0.00 | 49 | 1010.5 |
| 20260504194539 | 7 | 360 | 25.7 | 0.0 | 0.00 | 0.00 | 0.00 | 49 | 1010.6 |
| 20260504194039 | 7 | 360 | 25.7 | 0.0 | 0.00 | 0.00 | 0.00 | 49 | 1010.6 |
| 20260504193538 | 7 | 360 | 24.1 | 0.0 | 0.00 | 0.00 | 0.00 | 48 | 1010.5 |
| 20260504193038 | 7 | 360 | 24.1 | 0.0 | 0.00 | 0.00 | 0.00 | 47 | 1010.5 |
| 20260504192537 | 7 | 360 | 25.7 | 0.0 | 0.00 | 0.00 | 0.00 | 46 | 1010.4 |
| 20260504192037 | 7 | 360 | 29.0 | 0.0 | 0.00 | 0.00 | 0.00 | 45 | 1010.4 |
| 20260504191537 | 8 | 360 | 27.4 | 0.0 | 0.00 | 0.00 | 0.00 | 43 | 1010.3 |
| 20260504191037 | 8 | 360 | 25.7 | 0.0 | 0.00 | 0.00 | 0.00 | 45 | 1010.2 |
| 20260504190537 | 7 | 360 | 25.7 | 0.0 | 0.00 | 0.00 | 0.00 | 46 | 1010.3 |
| 20260504190036 | 7 | 360 | 24.1 | 0.0 | 0.00 | 0.00 | 0.00 | 44 | 1010.3 |
| 20260504185040 | 7 | 360 | 22.5 | 0.0 | 0.00 | 0.00 | 0.00 | 46 | 1010.3 |
| 20260504184537 | 7 | 360 | 22.5 | 0.0 | 0.00 | 0.00 | 0.00 | 47 | 1010.3 |
| 20260504184037 | 7 | 360 | 22.5 | 0.0 | 0.00 | 0.00 | 0.00 | 47 | 1010.3 |
| 20260504183537 | 7 | 360 | 22.5 | 0.0 | 0.00 | 0.00 | 0.00 | 48 | 1010.3 |
| 20260504183036 | 7 | 360 | 22.5 | 0.0 | 0.00 | 0.00 | 0.00 | 48 | 1010.4 |
| 20260504182536 | 7 | 360 | 22.5 | 0.0 | 0.00 | 0.00 | 0.00 | 48 | 1010.3 |
| 20260504182037 | 7 | 360 | 22.5 | 0.0 | 0.00 | 0.00 | 0.00 | 49 | 1010.4 |